Weather Roundup
Issued by NWS Chicago, IL

Home | Current Version | Previous Version | Graphics & Text | Print | Product List | Glossary On
Versions: 1 2 3 4 5 6 7 8 9 10 11 12 13 14 15 16 17 18 19 20 21 22 23 24 25 26 27 28 29 30 31 32 33 34 35 36 37 38 39 40 41 42 43 44 45 46 47 48 49 50
000
NZUS59 KLOT 260508
HRRLOT

CHICAGO AREA WEATHER ROUNDUP
NATIONAL WEATHER SERVICE CHICAGO/ROMEOVILLE IL
1200 AM CDT THU APR 26 2018

NOTE: "FAIR" INDICATES FEW OR NO CLOUDS BELOW 12,000 FEET WITH NO
SIGNIFICANT WEATHER AND/OR OBSTRUCTIONS TO VISIBILITY.

* THESE STATIONS ARE NOT UNDER NWS QUALITY CONTROL. THEY ALSO MAY NOT
  REPORT WEATHER SUCH AS PRECIPITATION OR FOG.

ILZ005-006-012>014-019>023-260600-
NORTHEAST ILLINOIS

CITY           SKY/WX    TMP DP  RH WIND       PRES   REMARKS
OHARE            N/A     39  29  67 N3        29.99F
MIDWAY           N/A     43  29  57 CALM      30.00F
AURORA           N/A     36  28  73 CALM      30.00F
LANSING*         N/A     34  33  97 CALM      30.00F
JOLIET*          N/A     38  31  78 CALM      30.01S
WAUKEGAN         N/A     31  28  89 CALM      30.00F
DUPAGE AIRPORT   N/A     37  30  75 CALM      29.99F
WHEELING         N/A     38  30  73 CALM      30.02F
KANKAKEE*        N/A     37  30  76 CALM      30.02S
MORRIS*          N/A     39  31  71 CALM      30.01S
LEWIS AIRPORT*   N/A     37  31  77 CALM      30.01S
NORTHERLY ISL    N/A     40  29  65 N3          N/A
$$

WIZ051-052-058>065-066-070>072-260600-
SOUTHEAST WISCONSIN

CITY           SKY/WX    TMP DP  RH WIND       PRES   REMARKS
MILWAUKEE        N/A     38  28  67 SW3       30.00F
KENOSHA*         N/A     35  27  72 NW3       30.00F
RACINE*          N/A     32  27  81 SW3       30.01F
BURLINGTON       N/A     32  29  87 CALM      29.99F
WAUKESHA         N/A     32  28  86 CALM      30.00S
WEST BEND        N/A     32  32 100 CALM      29.99F
$$

INZ001>003-010>013-019-020-260600-
NORTHWEST INDIANA

CITY           SKY/WX    TMP DP  RH WIND       PRES   REMARKS
GARY*            N/A     33  32  94 CALM      30.01F
MICHIGAN CITY* NOT AVBL
RENSSELAER*    NOT AVBL
VALPARAISO       N/A     39  31  72 N5        29.99F
$$

LMZ740>746-260600-
SOUTHERN LAKE MICHIGAN

STATION/POSITION TIME  SKY/WX   TEMP WIND        PRES    VSBY
                                AIR  DIR/SP/G
                 (UTC)          (F)  (DEG/KT/KT) (MB)    (MI)
HARRISON CRIB    0440            42  330/  6/  6   N/A
BURNHAM HARBOR   0500            40  350/  3/  5   N/A
CALUMET HARBOR   0448            39  310/  2/  3 1015.5F
BURNS HARBOR     0440            40  320/  5/  7 1016.6F
MICHIGAN CITY    0440            38  280/  9/  9   N/A
$$

ABBREVIATIONS USED IN REMARKS
   TC - TEMPERATURE IN CELSIUS
  WCI - WIND CHILL INDEX
   HX - HEAT INDEX
  VSB - VISIBILITY
$$




USA.gov is the U.S. government's official web portal to all federal, state and local government web resources and services.